RZO127 LPPT-LPPD

Flight info

Callsign RZO127
Flight time 2h 9m
Altitude 37000
Route ZIFOG DCT TABAX DCT KOMUT/M079F360 DCT 38N020W DCT BEKUN DCT OMOBI
Aircraft A320/M-SDE1FGHIRWXY/S

Departure

Time 2026-05-04 20:08
Airport Lisbon Humberto Delgado Airport (LPPT)

Arrival

Time 2026-05-04 22:18
Airport João Paulo II Airport (LPPD)
Time Latitude Longitude Altitude Speed Heading
2026-05-04 19:42 38.76983 -9.13078 354 ft 0 kts 79°
2026-05-04 19:58 38.76978 -9.13106 353 ft 4 kts 79°
2026-05-04 19:58 38.76975 -9.13139 359 ft 4 kts 103°
2026-05-04 19:59 38.76987 -9.13165 355 ft 4 kts 153°
2026-05-04 19:59 38.76995 -9.13170 357 ft 1 kts 168°
2026-05-04 20:01 38.76992 -9.13169 352 ft 2 kts 168°
2026-05-04 20:02 38.76963 -9.13161 352 ft 6 kts 168°
2026-05-04 20:02 38.76915 -9.13148 358 ft 8 kts 168°
2026-05-04 20:02 38.76853 -9.13131 352 ft 10 kts 168°
2026-05-04 20:02 38.76787 -9.13159 356 ft 12 kts 238°
2026-05-04 20:03 38.76765 -9.13265 355 ft 14 kts 259°
2026-05-04 20:03 38.76746 -9.13361 352 ft 10 kts 247°
2026-05-04 20:03 38.76691 -9.13429 354 ft 10 kts 214°
2026-05-04 20:03 38.76650 -9.13521 353 ft 14 kts 257°
2026-05-04 20:04 38.76627 -9.13662 356 ft 18 kts 259°
2026-05-04 20:04 38.76600 -9.13828 358 ft 16 kts 258°
2026-05-04 20:04 38.76578 -9.13959 351 ft 11 kts 255°
2026-05-04 20:04 38.76531 -9.14055 359 ft 10 kts 227°
2026-05-04 20:05 38.76497 -9.14146 358 ft 13 kts 266°
2026-05-04 20:05 38.76525 -9.14262 352 ft 15 kts 293°
2026-05-04 20:05 38.76537 -9.14298 354 ft 0 kts 292°
2026-05-04 20:06 38.76539 -9.14301 353 ft 3 kts 292°
2026-05-04 20:06 38.76567 -9.14375 354 ft 12 kts 308°
2026-05-04 20:06 38.76636 -9.14393 354 ft 5 kts 19°
2026-05-04 20:06 38.76644 -9.14389 356 ft 0 kts 19°
2026-05-04 20:07 38.76674 -9.14375 353 ft 25 kts 21°
2026-05-04 20:07 38.77079 -9.14157 361 ft 97 kts 22°
2026-05-04 20:08 38.77884 -9.13726 360 ft 152 kts 22°
2026-05-04 20:08 38.78893 -9.13133 830 ft 158 kts 27°
2026-05-04 20:08 38.79890 -9.12492 1402 ft 167 kts 24°
2026-05-04 20:08 38.81002 -9.11877 2013 ft 177 kts 22°
2026-05-04 20:09 38.82197 -9.11162 2284 ft 206 kts 24°
2026-05-04 20:09 38.83527 -9.10217 2680 ft 231 kts 26°
2026-05-04 20:09 38.84975 -9.09126 3286 ft 248 kts 27°
2026-05-04 20:09 38.86485 -9.08022 4180 ft 251 kts 19°
2026-05-04 20:10 38.88173 -9.07607 5033 ft 253 kts 355°
2026-05-04 20:10 38.89872 -9.08230 5913 ft 254 kts 328°
2026-05-04 20:10 38.91163 -9.09777 6747 ft 259 kts 303°
2026-05-04 20:10 38.91783 -9.11930 7504 ft 267 kts 277°
2026-05-04 20:11 38.91634 -9.14321 8389 ft 271 kts 263°
2026-05-04 20:11 38.91319 -9.16717 9304 ft 273 kts 263°
2026-05-04 20:11 38.90995 -9.19135 10144 ft 277 kts 263°
2026-05-04 20:11 38.90659 -9.21650 10582 ft 296 kts 262°
2026-05-04 20:12 38.90302 -9.24362 10836 ft 319 kts 262°
2026-05-04 20:12 38.89926 -9.27239 11320 ft 332 kts 262°
2026-05-04 20:12 38.89540 -9.30172 12072 ft 335 kts 262°
2026-05-04 20:12 38.89151 -9.33129 12880 ft 336 kts 262°
2026-05-04 20:13 38.88761 -9.36101 13699 ft 338 kts 262°
2026-05-04 20:13 38.88370 -9.39077 14440 ft 339 kts 262°
2026-05-04 20:13 38.87975 -9.42072 15147 ft 341 kts 262°
2026-05-04 20:13 38.87576 -9.45075 15850 ft 342 kts 262°
2026-05-04 20:14 38.87176 -9.48092 16519 ft 344 kts 263°
2026-05-04 20:14 38.86774 -9.51125 17175 ft 347 kts 263°
2026-05-04 20:14 38.86369 -9.54181 17846 ft 349 kts 263°
2026-05-04 20:14 38.85961 -9.57257 18505 ft 351 kts 263°
2026-05-04 20:15 38.85547 -9.60352 19093 ft 352 kts 263°
2026-05-04 20:15 38.85127 -9.63452 19702 ft 354 kts 263°
2026-05-04 20:15 38.84709 -9.66529 20305 ft 355 kts 263°
2026-05-04 20:15 38.84287 -9.69655 20919 ft 356 kts 263°
2026-05-04 20:16 38.83868 -9.72791 21507 ft 357 kts 263°
2026-05-04 20:16 38.83447 -9.75937 22081 ft 359 kts 263°
2026-05-04 20:16 38.83020 -9.79100 22651 ft 360 kts 263°
2026-05-04 20:16 38.82590 -9.82268 23193 ft 362 kts 263°
2026-05-04 20:17 38.82156 -9.85454 23705 ft 364 kts 263°
2026-05-04 20:17 38.81719 -9.88651 24115 ft 366 kts 263°
2026-05-04 20:17 38.81276 -9.91871 24525 ft 367 kts 263°
2026-05-04 20:17 38.80829 -9.95106 24930 ft 369 kts 262°
2026-05-04 20:18 38.80381 -9.98361 25324 ft 370 kts 262°
2026-05-04 20:18 38.79935 -10.01608 25706 ft 372 kts 262°
2026-05-04 20:18 38.79487 -10.04888 26088 ft 373 kts 262°
2026-05-04 20:18 38.79037 -10.08180 26463 ft 375 kts 262°
2026-05-04 20:19 38.78581 -10.11486 26833 ft 377 kts 262°
2026-05-04 20:19 38.78123 -10.14796 27191 ft 378 kts 262°
2026-05-04 20:19 38.77667 -10.18085 27544 ft 380 kts 262°
2026-05-04 20:19 38.77201 -10.21425 27873 ft 382 kts 262°
2026-05-04 20:20 38.76731 -10.24792 28167 ft 384 kts 262°
2026-05-04 20:20 38.76256 -10.28175 28481 ft 386 kts 262°
2026-05-04 20:20 38.75780 -10.31568 28789 ft 388 kts 262°
2026-05-04 20:20 38.75299 -10.34977 29096 ft 390 kts 262°
2026-05-04 20:21 38.74816 -10.38400 29394 ft 391 kts 262°
2026-05-04 20:21 38.74330 -10.41842 29681 ft 392 kts 262°
2026-05-04 20:21 38.73359 -10.48739 30219 ft 395 kts 261°
2026-05-04 20:22 38.72869 -10.52200 30475 ft 395 kts 261°
2026-05-04 20:22 38.72375 -10.55659 30767 ft 394 kts 261°
2026-05-04 20:22 38.71880 -10.59105 31035 ft 394 kts 261°
2026-05-04 20:22 38.71382 -10.62566 31284 ft 395 kts 261°
2026-05-04 20:23 38.70884 -10.66022 31548 ft 395 kts 261°
2026-05-04 20:23 38.70386 -10.69487 31826 ft 395 kts 261°
2026-05-04 20:23 38.69893 -10.72943 32113 ft 394 kts 261°
2026-05-04 20:23 38.69401 -10.76391 32391 ft 394 kts 261°
2026-05-04 20:24 38.68905 -10.79841 32675 ft 394 kts 261°
2026-05-04 20:24 38.68404 -10.83290 32959 ft 394 kts 261°
2026-05-04 20:24 38.67908 -10.86693 33237 ft 393 kts 261°
2026-05-04 20:24 38.67408 -10.90137 33521 ft 393 kts 261°
2026-05-04 20:25 38.66907 -10.93578 33803 ft 393 kts 261°
2026-05-04 20:25 38.66404 -10.97017 34036 ft 394 kts 261°
2026-05-04 20:25 38.65896 -11.00472 34253 ft 395 kts 261°
2026-05-04 20:25 38.65390 -11.03925 34478 ft 395 kts 261°
2026-05-04 20:26 38.64882 -11.07386 34715 ft 395 kts 261°
2026-05-04 20:26 38.64371 -11.10846 34952 ft 395 kts 261°
2026-05-04 20:26 38.63862 -11.14287 35182 ft 395 kts 261°
2026-05-04 20:26 38.63350 -11.17750 35412 ft 395 kts 261°
2026-05-04 20:27 38.62842 -11.21192 35625 ft 394 kts 261°
2026-05-04 20:27 38.62331 -11.24639 35837 ft 394 kts 261°
2026-05-04 20:27 38.61992 -11.26916 35976 ft 394 kts 261°
2026-05-04 20:27 38.61476 -11.30366 36182 ft 394 kts 261°
2026-05-04 20:28 38.60962 -11.33805 36364 ft 394 kts 261°
2026-05-04 20:28 38.60445 -11.37258 36524 ft 395 kts 261°
2026-05-04 20:28 38.59927 -11.40701 36707 ft 395 kts 260°
2026-05-04 20:28 38.59404 -11.44158 36888 ft 395 kts 260°
2026-05-04 20:29 38.58882 -11.47607 37076 ft 395 kts 260°
2026-05-04 20:29 38.58362 -11.51051 37171 ft 395 kts 260°
2026-05-04 20:29 38.57321 -11.57953 37182 ft 396 kts 260°
2026-05-04 20:30 38.56274 -11.64861 37188 ft 396 kts 260°
2026-05-04 20:30 38.55222 -11.71762 37188 ft 396 kts 260°
2026-05-04 20:31 38.54171 -11.78614 37193 ft 396 kts 260°
2026-05-04 20:31 38.53105 -11.85509 37194 ft 396 kts 260°
2026-05-04 20:32 38.52025 -11.92415 37197 ft 396 kts 260°
2026-05-04 20:32 38.50953 -11.99329 37199 ft 396 kts 260°
2026-05-04 20:33 38.49888 -12.06231 37198 ft 396 kts 260°
2026-05-04 20:33 38.48808 -12.13125 37181 ft 396 kts 260°
2026-05-04 20:34 38.47722 -12.20022 37191 ft 396 kts 260°
2026-05-04 20:34 38.46632 -12.26912 37198 ft 396 kts 260°
2026-05-04 20:35 38.45545 -12.33798 37210 ft 396 kts 260°
2026-05-04 20:35 38.44449 -12.40685 37211 ft 396 kts 259°
2026-05-04 20:36 38.43353 -12.47530 37202 ft 396 kts 260°
2026-05-04 20:36 38.42253 -12.54407 37208 ft 396 kts 259°
2026-05-04 20:37 38.41147 -12.61287 37211 ft 396 kts 259°
2026-05-04 20:37 38.40030 -12.68161 37212 ft 396 kts 259°
2026-05-04 20:38 38.38917 -12.75038 37214 ft 396 kts 259°
2026-05-04 20:38 38.37803 -12.81900 37209 ft 396 kts 259°
2026-05-04 20:39 38.36676 -12.88765 37211 ft 395 kts 259°
2026-05-04 20:39 38.35545 -12.95606 37219 ft 395 kts 259°
2026-05-04 20:40 38.34419 -13.02460 37218 ft 395 kts 259°
2026-05-04 20:40 38.33293 -13.09317 37224 ft 395 kts 259°
2026-05-04 20:41 38.32150 -13.16179 37208 ft 395 kts 259°
2026-05-04 20:41 38.31012 -13.23017 37218 ft 395 kts 259°
2026-05-04 20:42 38.29869 -13.29846 37221 ft 394 kts 259°
2026-05-04 20:42 38.28723 -13.36682 37224 ft 394 kts 259°
2026-05-04 20:43 38.27576 -13.43505 37224 ft 394 kts 259°
2026-05-04 20:43 38.26421 -13.50321 37228 ft 394 kts 259°
2026-05-04 20:44 38.25258 -13.57139 37218 ft 394 kts 259°
2026-05-04 20:44 38.24093 -13.63957 37222 ft 395 kts 259°
2026-05-04 20:45 38.22929 -13.70733 37226 ft 395 kts 259°
2026-05-04 20:45 38.21757 -13.77553 37224 ft 395 kts 259°
2026-05-04 20:46 38.20590 -13.84384 37226 ft 395 kts 259°
2026-05-04 20:46 38.19416 -13.91205 37221 ft 395 kts 259°
2026-05-04 20:47 38.18228 -13.98025 37231 ft 395 kts 259°
2026-05-04 20:47 38.17032 -14.04839 37227 ft 395 kts 259°
2026-05-04 20:48 38.15844 -14.11614 37231 ft 395 kts 259°
2026-05-04 20:48 38.14653 -14.18424 37234 ft 395 kts 259°
2026-05-04 20:49 38.13453 -14.25240 37229 ft 395 kts 258°
2026-05-04 20:49 38.12248 -14.32043 37230 ft 395 kts 258°
2026-05-04 20:50 38.11038 -14.38847 37232 ft 395 kts 258°
2026-05-04 20:50 38.09833 -14.45644 37235 ft 395 kts 258°
2026-05-04 20:51 38.08620 -14.52441 37244 ft 395 kts 258°
2026-05-04 20:51 38.07403 -14.59250 37239 ft 395 kts 258°
2026-05-04 20:52 38.06179 -14.66044 37241 ft 395 kts 258°
2026-05-04 20:52 38.04952 -14.72849 37239 ft 395 kts 258°
2026-05-04 20:53 38.03717 -14.79655 37239 ft 396 kts 258°
2026-05-04 20:53 38.02476 -14.86459 37242 ft 396 kts 258°
2026-05-04 20:54 38.01240 -14.93222 37250 ft 396 kts 258°
2026-05-04 20:54 38.00118 -15.00047 37236 ft 395 kts 265°
2026-05-04 20:55 38.00136 -15.07011 37238 ft 396 kts 271°
2026-05-04 20:55 38.00287 -15.13981 37240 ft 396 kts 271°
2026-05-04 20:56 38.00432 -15.20960 37241 ft 396 kts 271°
2026-05-04 20:56 38.00565 -15.27942 37241 ft 396 kts 271°
2026-05-04 20:57 38.00691 -15.34921 37246 ft 396 kts 271°
2026-05-04 20:57 38.00814 -15.41902 37249 ft 396 kts 271°
2026-05-04 20:58 38.00935 -15.48886 37256 ft 396 kts 270°
2026-05-04 20:58 38.01049 -15.55874 37257 ft 396 kts 271°
2026-05-04 20:59 38.01165 -15.62872 37259 ft 397 kts 270°
2026-05-04 20:59 38.01274 -15.69814 37248 ft 397 kts 270°
2026-05-04 21:00 38.01376 -15.76809 37252 ft 397 kts 270°
2026-05-04 21:00 38.01477 -15.83851 37258 ft 397 kts 270°
2026-05-04 21:01 38.01570 -15.90812 37259 ft 397 kts 270°
2026-05-04 21:01 38.01666 -15.97805 37261 ft 397 kts 270°
2026-05-04 21:02 38.01753 -16.04825 37268 ft 397 kts 270°
2026-05-04 21:02 38.01840 -16.11827 37263 ft 398 kts 270°
2026-05-04 21:03 38.01920 -16.18847 37259 ft 398 kts 270°
2026-05-04 21:03 38.01992 -16.25870 37260 ft 398 kts 270°
2026-05-04 21:04 38.02063 -16.32854 37261 ft 398 kts 270°
2026-05-04 21:04 38.02136 -16.39883 37253 ft 399 kts 270°
2026-05-04 21:05 38.02200 -16.46917 37253 ft 399 kts 270°
2026-05-04 21:05 38.02259 -16.53960 37254 ft 399 kts 270°
2026-05-04 21:06 38.02318 -16.60999 37256 ft 400 kts 270°
2026-05-04 21:06 38.02372 -16.68058 37262 ft 400 kts 270°
2026-05-04 21:07 38.02412 -16.75109 37254 ft 400 kts 270°
2026-05-04 21:07 38.02449 -16.82173 37258 ft 400 kts 270°
2026-05-04 21:08 38.02483 -16.89239 37262 ft 401 kts 270°
2026-05-04 21:08 38.02520 -16.96298 37268 ft 401 kts 270°
2026-05-04 21:09 38.02552 -17.03378 37270 ft 401 kts 270°
2026-05-04 21:09 38.02573 -17.09254 37263 ft 401 kts 270°
2026-05-04 21:10 38.02602 -17.16341 37266 ft 402 kts 270°
2026-05-04 21:10 38.02624 -17.23438 37272 ft 402 kts 269°
2026-05-04 21:11 38.02638 -17.30531 37272 ft 402 kts 269°
2026-05-04 21:11 38.02644 -17.37627 37277 ft 403 kts 269°
2026-05-04 21:12 38.02643 -17.44727 37274 ft 403 kts 269°
2026-05-04 21:12 38.02645 -17.51845 37296 ft 403 kts 269°
2026-05-04 21:13 38.02646 -17.58913 37288 ft 404 kts 269°
2026-05-04 21:13 38.02640 -17.66035 37287 ft 404 kts 269°
2026-05-04 21:14 38.02629 -17.73164 37285 ft 404 kts 269°
2026-05-04 21:14 38.02611 -17.80293 37277 ft 404 kts 269°
2026-05-04 21:15 38.02590 -17.87426 37278 ft 404 kts 269°
2026-05-04 21:15 38.02568 -17.94556 37283 ft 405 kts 269°
2026-05-04 21:16 38.02537 -18.01702 37284 ft 405 kts 269°
2026-05-04 21:16 38.02504 -18.08842 37286 ft 405 kts 269°
2026-05-04 21:17 38.02468 -18.15992 37281 ft 405 kts 269°
2026-05-04 21:17 38.02423 -18.23101 37281 ft 406 kts 269°
2026-05-04 21:18 38.02376 -18.30255 37281 ft 406 kts 269°
2026-05-04 21:18 38.02323 -18.37420 37281 ft 406 kts 269°
2026-05-04 21:19 38.02263 -18.44566 37284 ft 406 kts 269°
2026-05-04 21:19 38.02201 -18.51727 37277 ft 406 kts 269°
2026-05-04 21:20 38.02142 -18.58889 37281 ft 406 kts 269°
2026-05-04 21:20 38.02071 -18.66064 37283 ft 407 kts 268°
2026-05-04 21:21 38.02006 -18.73235 37287 ft 407 kts 269°
2026-05-04 21:21 38.01935 -18.80429 37288 ft 407 kts 268°
2026-05-04 21:22 38.01846 -18.87599 37288 ft 407 kts 268°
2026-05-04 21:22 38.01753 -18.94736 37289 ft 407 kts 268°
2026-05-04 21:23 38.01661 -19.01915 37305 ft 407 kts 268°
2026-05-04 21:23 38.01569 -19.09118 37300 ft 408 kts 269°
2026-05-04 21:24 38.01479 -19.16314 37297 ft 408 kts 268°
2026-05-04 21:24 38.01379 -19.23512 37295 ft 409 kts 268°
2026-05-04 21:25 38.01267 -19.30714 37297 ft 409 kts 268°
2026-05-04 21:25 38.01154 -19.37892 37297 ft 409 kts 268°
2026-05-04 21:26 38.01033 -19.45106 37294 ft 409 kts 268°
2026-05-04 21:26 38.00911 -19.52326 37287 ft 409 kts 268°
2026-05-04 21:27 38.00782 -19.59550 37296 ft 410 kts 268°
2026-05-04 21:27 38.00655 -19.66775 37298 ft 410 kts 268°
2026-05-04 21:28 38.00516 -19.74000 37302 ft 410 kts 268°
2026-05-04 21:28 38.00380 -19.81230 37297 ft 410 kts 268°
2026-05-04 21:29 38.00239 -19.88408 37296 ft 410 kts 268°
2026-05-04 21:29 38.00089 -19.95634 37297 ft 410 kts 268°
2026-05-04 21:30 37.99951 -20.02859 37295 ft 410 kts 269°
2026-05-04 21:30 37.99928 -20.10108 37295 ft 410 kts 269°
2026-05-04 21:31 37.99930 -20.20958 37290 ft 410 kts 269°
2026-05-04 21:32 37.99903 -20.28197 37295 ft 410 kts 269°
2026-05-04 21:32 37.99870 -20.35396 37293 ft 411 kts 269°
2026-05-04 21:33 37.99828 -20.42687 37307 ft 411 kts 269°
2026-05-04 21:33 37.99786 -20.49898 37294 ft 412 kts 269°
2026-05-04 21:34 37.99737 -20.57175 37294 ft 412 kts 269°
2026-05-04 21:34 37.99685 -20.64448 37299 ft 413 kts 269°
2026-05-04 21:35 37.99620 -20.71717 37302 ft 413 kts 269°
2026-05-04 21:35 37.99555 -20.79001 37306 ft 413 kts 269°
2026-05-04 21:36 37.99485 -20.86275 37304 ft 413 kts 269°
2026-05-04 21:36 37.99411 -20.93566 37304 ft 414 kts 269°
2026-05-04 21:37 37.99339 -21.00865 37310 ft 414 kts 269°
2026-05-04 21:37 37.99256 -21.08174 37311 ft 415 kts 269°
2026-05-04 21:38 37.99171 -21.15487 37314 ft 415 kts 269°
2026-05-04 21:38 37.99083 -21.22799 37319 ft 415 kts 269°
2026-05-04 21:39 37.98984 -21.30115 37315 ft 415 kts 269°
2026-05-04 21:39 37.98883 -21.37385 37321 ft 415 kts 269°
2026-05-04 21:40 37.98783 -21.44704 37323 ft 415 kts 269°
2026-05-04 21:40 37.98677 -21.52025 37316 ft 415 kts 269°
2026-05-04 21:41 37.98563 -21.59351 37321 ft 416 kts 269°
2026-05-04 21:41 37.98442 -21.66674 37333 ft 416 kts 269°
2026-05-04 21:42 37.98319 -21.74016 37325 ft 416 kts 269°
2026-05-04 21:42 37.98193 -21.81346 37319 ft 416 kts 269°
2026-05-04 21:43 37.98067 -21.88680 37312 ft 416 kts 269°
2026-05-04 21:43 37.97925 -21.96033 37311 ft 417 kts 269°
2026-05-04 21:44 37.97792 -22.03352 37312 ft 417 kts 269°
2026-05-04 21:44 37.97645 -22.10718 37318 ft 418 kts 268°
2026-05-04 21:45 37.97495 -22.18089 37326 ft 418 kts 268°
2026-05-04 21:45 37.97338 -22.25460 37330 ft 418 kts 268°
2026-05-04 21:46 37.97169 -22.32830 37331 ft 418 kts 268°
2026-05-04 21:46 37.97005 -22.40206 37334 ft 418 kts 268°
2026-05-04 21:47 37.96846 -22.47588 37332 ft 419 kts 268°
2026-05-04 21:47 37.96672 -22.54970 37332 ft 419 kts 268°
2026-05-04 21:48 37.96494 -22.62344 37334 ft 419 kts 268°
2026-05-04 21:48 37.96310 -22.69721 37333 ft 419 kts 268°
2026-05-04 21:49 37.96121 -22.77109 37330 ft 419 kts 268°
2026-05-04 21:49 37.95923 -22.84436 37325 ft 419 kts 268°
2026-05-04 21:50 37.95723 -22.91821 37332 ft 420 kts 268°
2026-05-04 21:50 37.95523 -22.99218 37326 ft 420 kts 268°
2026-05-04 21:51 37.95317 -23.06628 37325 ft 421 kts 268°
2026-05-04 21:51 37.95107 -23.14037 37316 ft 421 kts 268°
2026-05-04 21:52 37.94885 -23.21448 37324 ft 421 kts 268°
2026-05-04 21:52 37.94667 -23.28873 37323 ft 421 kts 268°
2026-05-04 21:53 37.94449 -23.36285 37326 ft 421 kts 268°
2026-05-04 21:53 37.94215 -23.43704 37322 ft 421 kts 268°
2026-05-04 21:54 37.93975 -23.51121 37325 ft 422 kts 268°
2026-05-04 21:54 37.93770 -23.57293 37325 ft 422 kts 268°
2026-05-04 21:55 37.93521 -23.64716 37329 ft 422 kts 268°
2026-05-04 21:55 37.93277 -23.72134 37329 ft 422 kts 268°
2026-05-04 21:56 37.93029 -23.79562 37328 ft 422 kts 268°
2026-05-04 21:56 37.92900 -23.83282 37169 ft 423 kts 268°
2026-05-04 21:56 37.92768 -23.86992 36907 ft 422 kts 268°
2026-05-04 21:56 37.92636 -23.90706 36649 ft 422 kts 268°
2026-05-04 21:57 37.92502 -23.94417 36394 ft 421 kts 268°
2026-05-04 21:57 37.92366 -23.98115 36142 ft 421 kts 268°
2026-05-04 21:57 37.92226 -24.01823 35892 ft 421 kts 268°
2026-05-04 21:57 37.92089 -24.05520 35644 ft 420 kts 268°
2026-05-04 21:58 37.91954 -24.09219 35407 ft 420 kts 268°
2026-05-04 21:58 37.91821 -24.12928 35164 ft 422 kts 268°
2026-05-04 21:58 37.91684 -24.16645 34855 ft 422 kts 268°
2026-05-04 21:58 37.91542 -24.20367 34007 ft 424 kts 268°
2026-05-04 21:59 37.91401 -24.24054 33054 ft 425 kts 268°
2026-05-04 21:59 37.91256 -24.27810 32060 ft 428 kts 268°
2026-05-04 21:59 37.91110 -24.31586 31142 ft 430 kts 268°
2026-05-04 21:59 37.90964 -24.35370 30430 ft 428 kts 268°
2026-05-04 22:00 37.90815 -24.39104 29714 ft 423 kts 268°
2026-05-04 22:00 37.90666 -24.42803 29102 ft 417 kts 268°
2026-05-04 22:00 37.90518 -24.46451 28467 ft 412 kts 268°
2026-05-04 22:00 37.90371 -24.50071 27836 ft 408 kts 268°
2026-05-04 22:01 37.90225 -24.53636 27231 ft 404 kts 268°
2026-05-04 22:01 37.90075 -24.57179 26625 ft 401 kts 268°
2026-05-04 22:01 37.89926 -24.60696 26029 ft 398 kts 268°
2026-05-04 22:01 37.89778 -24.64185 25437 ft 396 kts 268°
2026-05-04 22:02 37.89634 -24.67650 24851 ft 394 kts 268°
2026-05-04 22:02 37.89493 -24.71109 24270 ft 392 kts 268°
2026-05-04 22:02 37.89353 -24.74539 23671 ft 390 kts 269°
2026-05-04 22:02 37.89209 -24.77963 23103 ft 387 kts 268°
2026-05-04 22:03 37.89094 -24.81344 22579 ft 382 kts 272°
2026-05-04 22:03 37.89241 -24.84686 22082 ft 378 kts 275°
2026-05-04 22:03 37.89417 -24.87985 21591 ft 375 kts 275°
2026-05-04 22:03 37.89591 -24.91267 21118 ft 371 kts 276°
2026-05-04 22:04 37.89764 -24.94469 20652 ft 368 kts 276°
2026-05-04 22:04 37.89939 -24.97729 20180 ft 365 kts 276°
2026-05-04 22:04 37.90104 -25.00878 19712 ft 363 kts 275°
2026-05-04 22:04 37.90270 -25.04052 19233 ft 361 kts 275°
2026-05-04 22:05 37.90433 -25.07218 18754 ft 360 kts 276°
2026-05-04 22:05 37.90596 -25.10371 18224 ft 359 kts 276°
2026-05-04 22:05 37.90756 -25.13515 17726 ft 357 kts 276°
2026-05-04 22:05 37.90914 -25.16647 17228 ft 356 kts 275°
2026-05-04 22:06 37.91072 -25.19767 16732 ft 355 kts 276°
2026-05-04 22:06 37.91229 -25.22882 16231 ft 354 kts 275°
2026-05-04 22:06 37.91385 -25.25997 15730 ft 354 kts 275°
2026-05-04 22:06 37.91540 -25.29117 15233 ft 355 kts 276°
2026-05-04 22:07 37.91695 -25.32234 14722 ft 355 kts 276°
2026-05-04 22:07 37.91850 -25.35363 14207 ft 356 kts 276°
2026-05-04 22:07 37.92005 -25.38498 13641 ft 355 kts 275°
2026-05-04 22:07 37.92154 -25.41569 13128 ft 347 kts 276°
2026-05-04 22:08 37.92301 -25.44614 12561 ft 347 kts 275°
2026-05-04 22:08 37.92446 -25.47681 11805 ft 350 kts 275°
2026-05-04 22:08 37.92587 -25.50713 11224 ft 336 kts 276°
2026-05-04 22:08 37.92721 -25.53610 10718 ft 327 kts 276°
2026-05-04 22:09 37.92856 -25.56434 10329 ft 312 kts 276°
2026-05-04 22:09 37.92980 -25.59087 10013 ft 301 kts 276°
2026-05-04 22:09 37.93058 -25.61758 9855 ft 300 kts 271°
2026-05-04 22:09 37.92999 -25.64362 9723 ft 299 kts 271°
2026-05-04 22:10 37.92936 -25.67023 9605 ft 298 kts 270°
2026-05-04 22:10 37.92874 -25.69645 9308 ft 298 kts 271°
2026-05-04 22:10 37.92812 -25.72234 8820 ft 296 kts 271°
2026-05-04 22:10 37.92749 -25.74852 8309 ft 292 kts 271°
2026-05-04 22:11 37.92685 -25.77419 7814 ft 291 kts 271°
2026-05-04 22:11 37.92622 -25.79937 7332 ft 289 kts 271°
2026-05-04 22:11 37.92557 -25.82472 6836 ft 287 kts 271°
2026-05-04 22:11 37.92457 -25.84987 6274 ft 286 kts 263°
2026-05-04 22:12 37.91804 -25.87361 5725 ft 290 kts 239°
2026-05-04 22:12 37.90469 -25.89260 5163 ft 290 kts 215°
2026-05-04 22:12 37.88704 -25.90351 4586 ft 278 kts 193°
2026-05-04 22:12 37.86848 -25.90929 4020 ft 273 kts 192°
2026-05-04 22:13 37.85007 -25.91503 3465 ft 271 kts 192°
2026-05-04 22:13 37.83188 -25.92076 2997 ft 264 kts 192°
2026-05-04 22:13 37.81423 -25.92297 2536 ft 248 kts 167°
2026-05-04 22:13 37.79927 -25.91486 2236 ft 223 kts 136°
2026-05-04 22:14 37.79013 -25.90068 2220 ft 202 kts 111°
2026-05-04 22:14 37.78581 -25.88403 2223 ft 198 kts 102°
2026-05-04 22:14 37.78221 -25.86784 2202 ft 186 kts 102°
2026-05-04 22:14 37.77876 -25.85234 2214 ft 182 kts 102°
2026-05-04 22:15 37.77537 -25.83703 2210 ft 180 kts 102°
2026-05-04 22:15 37.77202 -25.82175 2196 ft 180 kts 101°
2026-05-04 22:15 37.76877 -25.80691 1956 ft 169 kts 101°
2026-05-04 22:15 37.76571 -25.79306 1689 ft 157 kts 101°
2026-05-04 22:16 37.76289 -25.78032 1464 ft 145 kts 101°
2026-05-04 22:16 37.76028 -25.76854 1295 ft 135 kts 101°
2026-05-04 22:16 37.75780 -25.75727 1101 ft 130 kts 100°
2026-05-04 22:16 37.75541 -25.74632 922 ft 129 kts 101°
2026-05-04 22:17 37.75309 -25.73542 733 ft 128 kts 99°
2026-05-04 22:17 37.75036 -25.72477 548 ft 126 kts 104°
2026-05-04 22:17 37.74730 -25.71445 397 ft 126 kts 108°
2026-05-04 22:17 37.74390 -25.70435 266 ft 126 kts 110°
2026-05-04 22:18 37.74155 -25.69621 226 ft 58 kts 111°
2026-05-04 22:18 37.74085 -25.69360 218 ft 26 kts 104°
2026-05-04 22:18 37.74040 -25.69201 214 ft 9 kts 173°
2026-05-04 22:18 37.74036 -25.69239 215 ft 3 kts 272°
2026-05-04 22:19 37.74052 -25.69316 215 ft 17 kts 290°
2026-05-04 22:19 37.74117 -25.69500 224 ft 27 kts 292°
2026-05-04 22:19 37.74184 -25.69718 232 ft 25 kts 291°
2026-05-04 22:19 37.74250 -25.69926 236 ft 26 kts 291°
2026-05-04 22:20 37.74316 -25.70125 242 ft 24 kts 297°
2026-05-04 22:20 37.74416 -25.70286 252 ft 22 kts 320°
2026-05-04 22:20 37.74525 -25.70397 263 ft 18 kts 321°
2026-05-04 22:20 37.74604 -25.70499 272 ft 14 kts 302°
2026-05-04 22:21 37.74641 -25.70602 272 ft 12 kts 291°
2026-05-04 22:21 37.74672 -25.70700 273 ft 11 kts 291°
2026-05-04 22:21 37.74700 -25.70789 275 ft 10 kts 292°
2026-05-04 22:21 37.74726 -25.70871 275 ft 10 kts 292°
2026-05-04 22:22 37.74751 -25.70947 272 ft 9 kts 292°
2026-05-04 22:22 37.74774 -25.71016 274 ft 8 kts 308°
2026-05-04 22:22 37.74821 -25.71011 273 ft 8 kts 28°
2026-05-04 22:22 37.74841 -25.70999 272 ft 0 kts 24°